SL-8 DEB, 21256

Orbit data source: Space-Track

SL-8 DEB, 21256 is space debris in LEO originally from a launch on Tue, 12 Feb 1991 UTC launched from the Plesetsk Missile And Space Complex (PKMTR). Debris objects in space refer to the collection of defunct objects orbiting the Earth. Examples of debris include non-operational satellites, rocket bodies, and fragments generated from explosions, collisions, or faulty payload assembly.

Loading next visibility...
Identifier
21256, 1991-009BN
Orbit
LEO
Country
Flag of CISCIS
Related business
Manufacturer
Unknown
Mission
Spacecraft
Bus & Motor
Unknown
Mass
Unknown
Launch date (UTC)
1991-02-12 (35 years ago)
Launch vehicle
Unknown
Launch site
Plesetsk Missile And Space Complex (PKMTR)
Object type
Payload
Rocket body
Debris
Shape & HBR
Unknown shape, 0.2 m
Radar Cross Section
Medium (>0.1 m² and <1 m²)

Expand to show TLE details & history
Last TLE update: 2 days ago

TLE from 2 days ago
0 SL-8 DEB
1 21256U 91009BN  26171.33633344  .00000042  00000-0  76332-3 0  9991
2 21256  73.9758 129.0288 0246183 195.7838 319.4921 11.84172443521712
Epoch: 2026-06-20T08:04Z
TLE epoch observation values (Epoch: 2026-06-20T08:04:19.209Z)
Latitude
25.52527°
Longitude
-88.44779°
Altitude
1,604.981 km
Speed
7.134 km/s
True Right ascension
20h 04m 44s
True Declination
25° 24' 22"
Sunlit
Object was in daylight at epoch
Visualization orbit readout
Latitude
Unknown
Longitude
Unknown
Altitude
Unknown
Speed
Unknown
Apparent Right ascension
Unknown
Apparent Declination
Unknown
Sunlit
N/A
Visualization observer readout
Local Sidereal Time
00:51:04
Azimuth
Unknown
Elevation
Unknown
Doppler factor
Unknown
Orbital elements
Apogee altitude
1,950.538 km
Perigee altitude
1,550.315 km
Semi-major axis
8,128.563 km
Eccentricity
0.02462
Inclination
73.9758°
RAAN
129.0288°
Arg. of periapsis
195.7838°
True anomaly
317.61616°
Mean anomaly
319.4921°
Eccentric anomaly
318.55854°
Mean motion
2.96157 °/min
Orbital period
121.56 mins
BSTAR
0.00076332
Loading maneuver chart data...
Computing Atmospheric mass density...
Loading historical data...
Loading historical data...
Loading historical data...
Loading historical data...
Loading historical data...
Loading historical data...
Loading historical data...

Documentation

Showing up to 5 results
|